This demonstration page uses our WeatherBlox Daily Observations layout. Learn more.

Left ArrowRight Arrow

39.29038, -76.61219

Hourly Observations for August 3, 2015

Temp ( °F °C ) Dew Point ( °F °C ) Humidity (%) Winds ( mph kmh ) Pressure ( in mb ) Visibility ( mi km ) Precip ( " mm )
12:54 am 00:54 Mostly Clear 76 24.4 59 15 56 56 undefined N/A 29.89 1012 N/A 0.00 0.00
1:54 am 01:54 undefined 75 23.9 60 15.6 60 60 undefined N/A 29.88 1012 N/A 0.00 0.00
2:54 am 02:54 undefined 74 23.3 61 16.1 64 64 undefined N/A 29.88 1012 N/A 0.00 0.00
3:54 am 03:54 undefined 74 23.3 61 16.1 64 64 undefined N/A 29.86 1011 N/A 0.00 0.00
4:54 am 04:54 undefined 72 22.2 62 16.7 71 71 undefined N/A 29.85 1011 N/A 0.00 0.00
5:54 am 05:54 Cloudy 71 21.7 61 16.1 71 71 undefined N/A 29.85 1011 N/A 0.00 0.00
6:54 am 06:54 Partly Cloudy 72 22.2 62 16.7 71 71 undefined N/A 29.87 1012 N/A 0.00 0.00
7:54 am 07:54 undefined 76 24.4 63 17.2 64 64 undefined N/A 29.87 1012 N/A 0.00 0.00
8:54 am 08:54 Cloudy 80 26.7 69 20.6 69 69 undefined N/A 29.87 1012 N/A 0.00 0.00
9:54 am 09:54 undefined 82 27.8 61 16.1 49 49 undefined N/A 29.88 1012 N/A 0.00 0.00
10:54 am 10:54 undefined 85 29.4 61 16.1 45 45 undefined N/A 29.87 1012 N/A 0.00 0.00
11:54 am 11:54 undefined 87 30.6 59 15 39 39 undefined N/A 29.85 1011 N/A 0.00 0.00
12:54 pm 12:54 Mostly Sunny 90 32.2 56 13.3 32 32 undefined N/A 29.83 1010 N/A 0.00 0.00
1:54 pm 13:54 Mostly Sunny 91 32.8 55 12.8 30 30 undefined N/A 29.82 1010 N/A 0.00 0.00
2:54 pm 14:54 Partly Cloudy 92 33.3 53 11.7 27 27 undefined N/A 29.80 1009 N/A 0.00 0.00
3:54 pm 15:54 Sunny 95 35 64 17.5 35 35 undefined N/A 29.91 1013 N/A 0.00 0.00
4:54 pm 16:54 undefined 92 33.3 54 12.2 28 28 undefined N/A 29.80 1009 N/A 0.00 0.00
5:54 pm 17:54 undefined 90 32.2 56 13.3 32 32 undefined N/A 29.80 1009 N/A 0.00 0.00
6:54 pm 18:54 undefined 89 31.7 61 16.1 39 39 undefined N/A 29.80 1009 N/A 0.00 0.00
7:54 pm 19:54 undefined 88 31.1 63 17.2 43 43 undefined N/A 29.80 1009 N/A 0.00 0.00
8:54 pm 20:54 undefined 86 30 64 17.8 48 48 undefined N/A 29.81 1010 N/A 0.00 0.00
9:54 pm 21:54 undefined 85 29.4 64 17.8 50 50 undefined N/A 29.83 1010 N/A 0.00 0.00
10:54 pm 22:54 Mostly Clear 82 27.8 76 24.4 82 82 undefined N/A 30.00 1016 N/A 0.00 0.00
11:54 pm 23:54 undefined 82 27.8 65 18.3 56 56 undefined N/A 29.83 1010 N/A 0.00 0.00

Powered by AerisWeather